timestamp,wind_dir_avg,wind_spd_avg,wind_spd_max_dir,wind_spd_gust,battery_voltage,lat,long
2021-09-21 00:04:00+00:00,26.0,7.26,17.0,9.14,12.65,47.59359,-54.27349
2021-09-21 00:14:01+00:00,22.0,8.49,19.0,10.22,12.65,47.59359,-54.27349
2021-09-21 00:24:01+00:00,17.0,8.1,17.0,9.33,12.65,47.59359,-54.27349
2021-09-21 00:34:01+00:00,14.0,7.76,12.0,9.2,12.65,47.59359,-54.27349
2021-09-21 00:44:01+00:00,23.0,7.27,22.0,8.31,12.65,47.59359,-54.27349
2021-09-21 00:54:01+00:00,28.0,6.64,18.0,8.56,12.65,47.59359,-54.27349
2021-09-21 01:04:01+00:00,21.0,7.12,21.0,7.97,12.65,47.59359,-54.27349
2021-09-21 01:14:00+00:00,21.0,6.15,14.0,7.52,12.57,47.59359,-54.27349
2021-09-21 01:24:00+00:00,17.0,5.12,15.0,6.12,12.57,47.59359,-54.27349
2021-09-21 01:34:00+00:00,20.0,4.62,19.0,6.0,12.57,47.59359,-54.27349
2021-09-21 01:44:00+00:00,17.0,5.53,17.0,6.98,12.57,47.59359,-54.27349
2021-09-21 01:54:00+00:00,21.0,6.07,17.0,7.43,12.57,47.59359,-54.27349
2021-09-21 02:04:00+00:00,36.0,6.0,36.0,6.51,12.57,47.59359,-54.27349
2021-09-21 02:14:00+00:00,31.0,5.66,29.0,6.72,12.57,47.59359,-54.27349
2021-09-21 02:24:00+00:00,27.0,6.56,28.0,7.47,12.57,47.59359,-54.27349
2021-09-21 02:34:00+00:00,19.0,6.02,16.0,7.61,12.57,47.59359,-54.27349
2021-09-21 02:44:00+00:00,34.0,5.25,37.0,6.13,12.57,47.59359,-54.27349
2021-09-21 02:54:00+00:00,35.0,4.74,32.0,5.68,12.57,47.59359,-54.27349
2021-09-21 03:04:00+00:00,33.0,4.62,41.0,5.69,12.57,47.59359,-54.27349
2021-09-21 03:14:00+00:00,37.0,4.63,31.0,5.37,12.57,47.59359,-54.27349
2021-09-21 03:24:00+00:00,47.0,4.84,39.0,5.95,12.57,47.59359,-54.27349
2021-09-21 03:34:00+00:00,21.0,3.7,37.0,5.18,12.57,47.59359,-54.27349
2021-09-21 03:44:00+00:00,39.0,5.12,46.0,5.96,12.57,47.59359,-54.27349
2021-09-21 03:54:00+00:00,23.0,4.22,27.0,5.15,12.57,47.59359,-54.27349
2021-09-21 04:04:00+00:00,29.0,4.3,28.0,5.1,12.57,47.59359,-54.27349
2021-09-21 04:14:01+00:00,4.0,4.56,10.0,5.74,12.57,47.59359,-54.27349
2021-09-21 04:24:01+00:00,356.0,4.52,2.0,5.28,12.57,47.59359,-54.27349
2021-09-21 04:34:01+00:00,1.0,4.38,359.0,5.17,12.57,47.59359,-54.27349
2021-09-21 04:44:01+00:00,1.0,4.43,0.0,5.06,12.57,47.59359,-54.27349
2021-09-21 04:54:01+00:00,338.0,5.02,339.0,5.6,12.57,47.59359,-54.27349
2021-09-21 05:04:01+00:00,328.0,4.27,325.0,4.82,12.57,47.59359,-54.27349
2021-09-21 05:14:00+00:00,329.0,3.95,331.0,4.72,12.57,47.59359,-54.27349
2021-09-21 05:24:00+00:00,328.0,4.62,332.0,5.21,12.57,47.59359,-54.27349
2021-09-21 05:34:00+00:00,334.0,3.97,332.0,4.58,12.57,47.59359,-54.27349
2021-09-21 05:44:00+00:00,319.0,5.09,314.0,5.71,12.57,47.59359,-54.27349
2021-09-21 05:54:00+00:00,335.0,4.42,333.0,4.94,12.57,47.59359,-54.27349
2021-09-21 06:04:00+00:00,328.0,5.5,328.0,6.02,12.57,47.59359,-54.27349
2021-09-21 06:14:00+00:00,329.0,4.12,325.0,4.74,12.57,47.59359,-54.27349
2021-09-21 06:24:00+00:00,340.0,3.86,341.0,4.66,12.57,47.59359,-54.27349
2021-09-21 06:34:00+00:00,348.0,3.33,346.0,4.08,12.57,47.59359,-54.27349
2021-09-21 06:44:00+00:00,338.0,2.05,344.0,2.59,12.57,47.59359,-54.27349
2021-09-21 06:54:00+00:00,336.0,1.84,343.0,2.38,12.57,47.59359,-54.27349
2021-09-21 07:04:00+00:00,307.0,1.98,299.0,2.34,12.57,47.59359,-54.27349
2021-09-21 07:14:01+00:00,305.0,1.55,298.0,2.02,12.49,47.59359,-54.27349
2021-09-21 07:24:01+00:00,317.0,1.74,322.0,2.26,12.49,47.59359,-54.27349
2021-09-21 07:34:01+00:00,297.0,1.86,298.0,2.38,12.49,47.59359,-54.27349
2021-09-21 07:44:01+00:00,315.0,1.47,316.0,1.94,12.49,47.59359,-54.27349
2021-09-21 07:54:01+00:00,278.0,1.84,270.0,2.13,12.49,47.59359,-54.27349
2021-09-21 08:04:01+00:00,299.0,2.21,300.0,2.46,12.49,47.59359,-54.27349
2021-09-21 08:14:01+00:00,289.0,1.71,296.0,2.28,12.49,47.59359,-54.27349
2021-09-21 08:24:01+00:00,272.0,2.38,271.0,3.11,12.49,47.59359,-54.27349
2021-09-21 08:34:01+00:00,260.0,2.24,257.0,2.92,12.49,47.59359,-54.27349
2021-09-21 08:44:01+00:00,264.0,2.3,256.0,2.78,12.49,47.59359,-54.27349
2021-09-21 08:54:01+00:00,262.0,2.67,271.0,3.68,12.49,47.59359,-54.27349
2021-09-21 09:04:01+00:00,278.0,1.98,272.0,2.42,12.49,47.59359,-54.27349
2021-09-21 09:14:01+00:00,256.0,2.8,249.0,3.38,12.41,47.59359,-54.27349
2021-09-21 09:24:01+00:00,233.0,2.02,256.0,2.42,12.41,47.59359,-54.27349
2021-09-21 09:34:01+00:00,217.0,2.62,216.0,3.26,12.41,47.59359,-54.27349
2021-09-21 09:44:01+00:00,235.0,2.98,245.0,3.59,12.41,47.59359,-54.27349
2021-09-21 09:54:01+00:00,223.0,3.07,219.0,3.62,12.41,47.59359,-54.27349
2021-09-21 10:04:01+00:00,227.0,3.62,227.0,3.96,12.41,47.59359,-54.27349
2021-09-21 10:14:01+00:00,225.0,3.3,222.0,3.89,12.97,47.59359,-54.27349
2021-09-21 10:24:01+00:00,220.0,3.75,223.0,4.15,12.97,47.59359,-54.27349
2021-09-21 10:34:01+00:00,226.0,3.31,231.0,4.0,12.97,47.59359,-54.27349
2021-09-21 10:44:01+00:00,238.0,3.47,244.0,4.25,12.97,47.59359,-54.27349
2021-09-21 10:54:01+00:00,246.0,2.94,228.0,4.32,12.97,47.59359,-54.27349
2021-09-21 11:04:01+00:00,229.0,3.5,231.0,3.98,12.97,47.59359,-54.27349
2021-09-21 11:14:01+00:00,236.0,4.59,237.0,5.13,13.84,47.59359,-54.27349
2021-09-21 11:24:01+00:00,241.0,4.09,230.0,4.58,13.84,47.59359,-54.27349
2021-09-21 11:34:01+00:00,234.0,4.82,234.0,5.57,13.84,47.59359,-54.27349
2021-09-21 11:44:01+00:00,236.0,4.84,233.0,5.55,13.84,47.59359,-54.27349
2021-09-21 11:54:01+00:00,232.0,5.19,231.0,5.74,13.84,47.59359,-54.27349
2021-09-21 12:04:01+00:00,240.0,4.71,239.0,5.48,13.84,47.59359,-54.27349
2021-09-21 12:14:01+00:00,225.0,5.38,223.0,6.29,14.24,47.59359,-54.27349
2021-09-21 12:24:01+00:00,231.0,4.98,236.0,6.08,14.24,47.59359,-54.27349
2021-09-21 12:34:01+00:00,238.0,5.29,233.0,6.12,14.24,47.59359,-54.27349
2021-09-21 12:44:01+00:00,248.0,5.24,255.0,5.84,14.24,47.59359,-54.27349
2021-09-21 12:54:01+00:00,240.0,5.85,241.0,6.23,14.24,47.59359,-54.27349
2021-09-21 13:04:01+00:00,239.0,5.56,240.0,6.48,14.24,47.59359,-54.27349
2021-09-21 13:14:01+00:00,233.0,5.25,239.0,6.43,14.24,47.59359,-54.27349
2021-09-21 13:24:01+00:00,232.0,5.74,231.0,6.26,14.24,47.59359,-54.27349
2021-09-21 13:34:01+00:00,226.0,4.83,224.0,5.73,14.24,47.59359,-54.27349
2021-09-21 13:44:01+00:00,228.0,5.92,226.0,6.61,14.24,47.59359,-54.27349
2021-09-21 13:54:01+00:00,235.0,6.26,237.0,7.09,14.24,47.59359,-54.27349
2021-09-21 14:04:01+00:00,232.0,6.0,233.0,8.07,14.24,47.59359,-54.27349
2021-09-21 14:14:01+00:00,233.0,7.21,235.0,8.93,13.68,47.59359,-54.27349
2021-09-21 14:24:01+00:00,235.0,9.08,237.0,9.65,13.68,47.59359,-54.27349
2021-09-21 14:34:01+00:00,232.0,8.32,229.0,9.69,13.68,47.59359,-54.27349
2021-09-21 14:44:01+00:00,232.0,7.51,235.0,8.49,13.68,47.59359,-54.27349
2021-09-21 14:54:01+00:00,222.0,8.49,218.0,9.49,13.68,47.59359,-54.27349
2021-09-21 15:04:01+00:00,225.0,8.12,224.0,9.48,13.68,47.59359,-54.27349
2021-09-21 15:14:01+00:00,211.0,10.08,205.0,11.8,14.32,47.59359,-54.27349
2021-09-21 15:24:01+00:00,210.0,11.62,215.0,12.82,14.32,47.59359,-54.27349
2021-09-21 15:34:01+00:00,211.0,11.61,215.0,13.78,14.32,47.59359,-54.27349
2021-09-21 15:44:01+00:00,207.0,12.35,211.0,13.91,14.32,47.59359,-54.27349
2021-09-21 15:54:01+00:00,211.0,11.98,209.0,13.69,14.32,47.59359,-54.27349
2021-09-21 16:04:01+00:00,213.0,12.48,214.0,13.86,14.32,47.59359,-54.27349
2021-09-21 16:14:01+00:00,211.0,12.63,216.0,14.44,13.68,47.59359,-54.27349
2021-09-21 16:24:01+00:00,211.0,12.36,209.0,14.71,13.68,47.59359,-54.27349
2021-09-21 16:34:01+00:00,210.0,13.88,206.0,15.33,13.68,47.59359,-54.27349
2021-09-21 16:44:01+00:00,212.0,13.75,212.0,15.41,13.68,47.59359,-54.27349
2021-09-21 16:54:01+00:00,212.0,13.64,210.0,16.14,13.68,47.59359,-54.27349
2021-09-21 17:04:01+00:00,205.0,14.69,204.0,16.37,13.68,47.59359,-54.27349
2021-09-21 17:14:01+00:00,212.0,13.57,210.0,15.05,13.84,47.59359,-54.27349
2021-09-21 17:24:01+00:00,212.0,12.73,209.0,14.57,13.84,47.59359,-54.27349
2021-09-21 17:34:01+00:00,213.0,13.09,211.0,14.93,13.84,47.59359,-54.27349
2021-09-21 17:44:01+00:00,210.0,12.9,212.0,14.46,13.84,47.59359,-54.27349
2021-09-21 17:54:01+00:00,206.0,11.78,215.0,13.61,13.84,47.59359,-54.27349
2021-09-21 18:04:01+00:00,211.0,10.83,213.0,12.52,13.84,47.59359,-54.27349
2021-09-21 18:14:01+00:00,210.0,13.07,209.0,14.39,14.0,47.59359,-54.27349
2021-09-21 18:24:01+00:00,211.0,11.94,214.0,13.05,14.0,47.59359,-54.27349
2021-09-21 18:34:01+00:00,209.0,11.73,203.0,13.93,14.0,47.59359,-54.27349
2021-09-21 18:44:01+00:00,212.0,11.78,214.0,13.09,14.0,47.59359,-54.27349
2021-09-21 18:54:01+00:00,210.0,11.55,213.0,13.03,14.0,47.59359,-54.27349
2021-09-21 19:04:01+00:00,211.0,11.17,213.0,12.72,14.0,47.59359,-54.27349
2021-09-21 19:14:01+00:00,212.0,10.63,216.0,11.4,13.92,47.59359,-54.27349
2021-09-21 19:24:01+00:00,210.0,10.06,207.0,11.35,13.92,47.59359,-54.27349
2021-09-21 19:34:01+00:00,212.0,9.18,210.0,10.11,13.92,47.59359,-54.27349
2021-09-21 19:44:01+00:00,211.0,8.63,215.0,9.6,13.92,47.59359,-54.27349
2021-09-21 19:54:01+00:00,210.0,9.06,209.0,10.75,13.92,47.59359,-54.27349
2021-09-21 20:04:01+00:00,211.0,7.73,214.0,8.41,13.92,47.59359,-54.27349
2021-09-21 20:14:01+00:00,234.0,6.1,241.0,6.96,13.84,47.59359,-54.27349
2021-09-21 20:24:01+00:00,254.0,6.4,255.0,7.0,13.84,47.59359,-54.27349
2021-09-21 20:34:01+00:00,266.0,8.71,269.0,9.98,13.84,47.59359,-54.27349
2021-09-21 20:44:01+00:00,270.0,9.19,268.0,10.46,13.84,47.59359,-54.27349
2021-09-21 20:54:01+00:00,269.0,8.61,270.0,9.5,13.84,47.59359,-54.27349
2021-09-21 21:04:01+00:00,268.0,8.45,271.0,9.6,13.84,47.59359,-54.27349
2021-09-21 21:14:01+00:00,264.0,8.43,264.0,9.78,13.37,47.59359,-54.27349
2021-09-21 21:24:01+00:00,270.0,7.79,273.0,9.01,13.37,47.59359,-54.27349
2021-09-21 21:34:01+00:00,268.0,7.53,269.0,8.44,13.37,47.59359,-54.27349
2021-09-21 21:44:01+00:00,263.0,7.73,263.0,8.45,13.37,47.59359,-54.27349
2021-09-21 21:54:01+00:00,262.0,8.36,258.0,9.11,13.37,47.59359,-54.27349
2021-09-21 22:04:01+00:00,261.0,8.31,258.0,9.1,13.37,47.59359,-54.27349
2021-09-21 22:14:01+00:00,260.0,8.27,262.0,9.07,12.81,47.59359,-54.27349
2021-09-21 22:24:01+00:00,260.0,7.84,261.0,8.58,12.81,47.59359,-54.27349
2021-09-21 22:34:01+00:00,261.0,6.68,269.0,7.53,12.81,47.59359,-54.27349
2021-09-21 22:44:01+00:00,241.0,5.23,244.0,6.18,12.81,47.59359,-54.27349
2021-09-21 22:54:01+00:00,245.0,5.1,247.0,6.05,12.81,47.59359,-54.27349
2021-09-21 23:04:01+00:00,246.0,4.64,252.0,5.25,12.81,47.59359,-54.27349
2021-09-21 23:14:00+00:00,247.0,4.27,242.0,4.74,12.65,47.59359,-54.27349
2021-09-21 23:24:00+00:00,222.0,4.45,225.0,5.3,12.65,47.59359,-54.27349
2021-09-21 23:34:00+00:00,228.0,4.66,231.0,5.43,12.65,47.59359,-54.27349
2021-09-21 23:44:00+00:00,233.0,4.65,238.0,5.31,12.65,47.59359,-54.27349
2021-09-21 23:54:00+00:00,231.0,4.72,232.0,5.6,12.65,47.59359,-54.27349
